User: anonymous   Login
Location: Caltech
(34.1382°N, 118.1253°W)
Time: 19:55:54
(UTC-08:00)
Language:

Cosmos 2237 Rocket - Orbit

View from above orbital plane
View from above orbital plane
View from above satellite
View from above satellite

Ground track
Ground track

The orbit data is extracted from the following two-line orbital elements,

1 22566U 93016B   17049.93370745 -.00000229 +00000-0 -93650-4 0  9991
2 22566 071.0084 315.1477 0012114 305.4528 054.5463 14.14940484234530
Epoch (UTC): 18 February 2017 22:24:32
Eccentricity: 0.0012114
inclination: 71.0084°
perigee height: 834 km
apogee height: 851 km
right ascension of ascending node: 315.1477°
argument of perigee: 305.4528°
revolutions per day: 14.14940484
mean anomaly at epoch: 54.5463°
orbit number at epoch: 23453

The dashed part of the orbit path shows where the satellite is in the earth's shadow,  

DLR